Regional Weather Roundup
Issued by NWS Green Bay, WI

Home | Current Version | Previous Version | Text Only | Print | Product List | Glossary On
Versions: 1 2 3 4 5 6 7 8 9 10 11 12 13 14 15 16 17 18 19 20 21 22 23 24 25 26 27 28 29 30 31 32 33 34 35 36 37 38 39 40 41 42 43 44 45 46 47 48 49 50
000
ASUS43 KGRB 191211
RWRGRB

NORTH-CENTRAL AND NORTHEAST WISCONSIN REGIONAL WEATHER ROUNDUP
NATIONAL WEATHER SERVICE GREEN BAY WI
600 AM CST THU JAN 19 2017

WIZ005-009-010>012-018-019-191300-
NORTH CENTRAL WISCONSIN

CITY           SKY/WX    TMP DP  RH WIND       PRES   REMARKS
IRONWOOD       CLOUDY    34  33  96 S6        29.84R FOG
MANITOWISH WTR FOG       31  31 100 SW6       29.85R VSB 1/2
ARBOR VITAE    FOG       32  31  96 S6        29.86R VSB 3/4
EAGLE RIVER    FOG       31  31 100 SW5       29.86S VSB 1/2
LAND O LAKES   FOG       32  32 100 SW6       29.87R VSB 3/4
RHINELANDER    FOG       31  31 100 SW7       29.88R VSB 1/2
PHILLIPS       CLOUDY    31  31 100 S5        29.86R FOG
ANTIGO         FOG       29  29 100 SW5       29.90S VSB 1/2
TOMAHAWK       FOG       31  30  96 CALM      29.89R VSB 1
MERRILL        FOG       31  31 100 S3          N/A  VSB 3/4
$$

WIZ013-073-191300-
NORTHEAST WISCONSIN

CITY           SKY/WX    TMP DP  RH WIND       PRES   REMARKS
IRON MOUNTAIN  CLOUDY    29  26  89 S5        29.88R FOG
MARINETTE      NOT AVBL
OCONTO         CLOUDY    32  31  96 W5        29.95S
$$

WIZ017-030-035>037-045-191300-
CENTRAL WISCONSIN

CITY           SKY/WX    TMP DP  RH WIND       PRES   REMARKS
MEDFORD        FOG       31  31  99 S7        29.87S VSB 1/4
WAUSAU         FOG       31  31 100 CALM      29.88F VSB 1/4
MOSINEE        FOG       30  30 100 S3        29.91S VSB 1/4
MARSHFIELD     FOG       32  31  96 S7        29.89S VSB 1/4
WISC RAPIDS    FOG       33  33 100 S6        29.93S VSB 1/2
STEVENS POINT  FOG       31  31 100 S5        29.93R VSB 1/2
WAUPACA        CLOUDY    35  33  93 CALM      29.94S FOG
SHAWANO        CLOUDY    33  32  94 W3        29.94S FOG
CLINTONVILLE   CLOUDY    32  32 100 CALM      29.93F FOG
WAUTOMA        CLOUDY    34  33  96 S8        29.96R FOG
$$

WIZ038-039-048-051-191300-
FOX VALLEY

CITY           SKY/WX    TMP DP  RH WIND       PRES   REMARKS
NWS GREEN BAY  CLOUDY    34  34 100 SW8       29.95F FOG
APPLETON       FOG       32  32 100 SW12      29.94R VSB 1/2
OSHKOSH        CLOUDY    33  32  96 S6        29.95S FOG
FOND DU LAC    CLOUDY    33  31  92 SW8       29.96S FOG
$$

WIZ022-050-052-191300-
EAST CENTRAL WISCONSIN

CITY           SKY/WX    TMP DP  RH WIND       PRES   REMARKS
EPHRAIM        CLOUDY    31  31 100 W10       29.93S FOG
WASHINGTON ISL CLOUDY    30  29  97 SW13G21   29.94R FOG
STURGEON BAY   CLOUDY    32  31  96 W8        29.96R FOG
MANITOWOC      CLOUDY    34  32  92 SW5       29.98R FOG
SHEBOYGAN      CLOUDY    33  31  92 SW5       29.97R FOG
$$

LMZ563-521-522-541>543-191300-
LAKESHORE

STATION/POSITION TIME  TEMP    WIND        PRES    VSBY  WAVE
                       AIR SEA DIR/SP/G                  HT/PER
                 (UTC) (F)     (DEG/KT/KT) (MB)    (MI)  (FT/S)
SHEBOYGAN LKSHOR 1200   34     240/  6/  7 1015.4R
KEWAUNEE LKSHORE 1142   33     250/  5/ 11 1014.2R
NORTHPORT PIER   1200   31     230/  8/ 17 1013.5
SISTER BAY LKSHO 1120   31     270/ 15/ 18   N/A
MENOMINEE LKSHOR 1136          220/  7/ 10 1013.3R
$$




USA.gov is the U.S. government's official web portal to all federal, state and local government web resources and services.